BAW9226 LIMJ-LSGG

Flight info

Callsign BAW9226
Flight time N/A
Altitude 32000
Route LAGEN DCT TOP DCT AOSTA L615 BANKO
Aircraft B772/H-SDE1E3FGHIJ3J5J6M1M2P2RWXYZ/LB1D1

Departure

Time 2026-04-24 13:41
Airport Genoa Cristoforo Colombo Airport (LIMJ)

Arrival

Time N/A
Airport Geneva International Airport (LSGG)
Time Latitude Longitude Altitude Speed Heading
2026-04-24 13:13 44.41427 8.84934 30 ft 0 kts 60°
2026-04-24 13:34 44.41421 8.84920 30 ft 2 kts 60°
2026-04-24 13:34 44.41414 8.84901 29 ft 2 kts 60°
2026-04-24 13:35 44.41406 8.84883 29 ft 2 kts 60°
2026-04-24 13:35 44.41399 8.84865 29 ft 2 kts 60°
2026-04-24 13:35 44.41392 8.84846 29 ft 2 kts 71°
2026-04-24 13:35 44.41388 8.84826 29 ft 2 kts 81°
2026-04-24 13:36 44.41387 8.84806 29 ft 2 kts 90°
2026-04-24 13:36 44.41388 8.84785 29 ft 2 kts 100°
2026-04-24 13:36 44.41390 8.84771 29 ft 0 kts 107°
2026-04-24 13:36 44.41391 8.84768 29 ft 0 kts 107°
2026-04-24 13:37 44.41378 8.84825 29 ft 11 kts 108°
2026-04-24 13:38 44.41357 8.84917 29 ft 6 kts 108°
2026-04-24 13:38 44.41318 8.84939 29 ft 9 kts 178°
2026-04-24 13:38 44.41233 8.84913 29 ft 16 kts 193°
2026-04-24 13:38 44.41111 8.84865 29 ft 15 kts 197°
2026-04-24 13:39 44.41045 8.84929 29 ft 15 kts 99°
2026-04-24 13:39 44.41031 8.85104 29 ft 22 kts 106°
2026-04-24 13:39 44.40977 8.85364 30 ft 32 kts 107°
2026-04-24 13:39 44.40908 8.85702 30 ft 37 kts 105°
2026-04-24 13:40 44.40890 8.85975 30 ft 27 kts 84°
2026-04-24 13:40 44.40843 8.85965 30 ft 13 kts 281°
2026-04-24 13:40 44.40890 8.85723 30 ft 52 kts 285°
2026-04-24 13:40 44.41062 8.84828 29 ft 135 kts 286°
2026-04-24 13:41 44.41362 8.83362 366 ft 167 kts 285°
2026-04-24 13:41 44.41684 8.81817 1314 ft 167 kts 284°
2026-04-24 13:41 44.41839 8.80287 2114 ft 165 kts 269°
2026-04-24 13:41 44.41769 8.78680 2786 ft 173 kts 262°
2026-04-24 13:42 44.41652 8.76932 3387 ft 187 kts 261°
2026-04-24 13:42 44.41502 8.75106 4096 ft 198 kts 268°
2026-04-24 13:42 44.41855 8.73191 4696 ft 218 kts 302°
2026-04-24 13:42 44.42807 8.71470 5347 ft 234 kts 309°
2026-04-24 13:43 44.43874 8.69664 6018 ft 250 kts 309°
2026-04-24 13:43 44.44999 8.67765 6711 ft 265 kts 309°
2026-04-24 13:43 44.46181 8.65766 7630 ft 271 kts 310°
2026-04-24 13:43 44.47374 8.63748 8618 ft 274 kts 311°
2026-04-24 13:44 44.48589 8.61690 9532 ft 278 kts 311°
2026-04-24 13:44 44.49825 8.59597 10419 ft 284 kts 311°
2026-04-24 13:44 44.51108 8.57425 10976 ft 301 kts 311°
2026-04-24 13:44 44.52483 8.55096 11515 ft 318 kts 311°
2026-04-24 13:45 44.53913 8.52671 12213 ft 329 kts 312°
2026-04-24 13:45 44.55378 8.50182 13072 ft 335 kts 312°
2026-04-24 13:45 44.56857 8.47665 13903 ft 341 kts 312°
2026-04-24 13:45 44.58371 8.45089 14704 ft 348 kts 312°
2026-04-24 13:46 44.59906 8.42473 15494 ft 354 kts 312°
2026-04-24 13:46 44.61470 8.39806 16273 ft 360 kts 312°
2026-04-24 13:46 44.63072 8.37068 17056 ft 366 kts 312°
2026-04-24 13:46 44.64694 8.34295 17815 ft 372 kts 311°
2026-04-24 13:47 44.66346 8.31466 18591 ft 377 kts 311°
2026-04-24 13:47 44.68001 8.28629 19395 ft 381 kts 311°
2026-04-24 13:47 44.69696 8.25720 20167 ft 386 kts 311°
2026-04-24 13:47 44.71411 8.22809 20942 ft 389 kts 315°
2026-04-24 13:48 44.73392 8.20247 21686 ft 389 kts 326°